[[{"header":{"parameterUnit":"m.s-1","parameterCategory":1,"la1":30.2991,"la2":30.254,"lo1":-89.0895,"lo2":-89.0444,"dy":0.0017,"dx":0.0017,"nx":28,"ny":28,"refTime":"2023-10-19T21:00:00:Z","depth":0,"parameterNumber":2,"parameterNumberName":"U-component_of_WINDS"},"data":[0,0,0,0,0,0,0,0,0,0,0,0,0,0,0,0,0,0,0,0,0,0,0,0,0,0,0,0,0,0,0,0,0,0,0,0,0,0,0,0,0,0,0,0,0,0,0,0,0,0,0,0,0,0,0,0,0,0,5.248,5.2481,0,5.2591,5.2592,5.2593,5.256,5.2558,5.2555,5.2553,5.2669,5.2674,5.2679,0,0,0,0,0,0,0,0,0,0,0,0,0,5.2244,5.2249,5.248,5.2481,5.2483,5.259,5.2592,5.2593,5.256,5.2558,5.2555,5.2552,5.2667,5.2674,5.268,0,0,0,0,0,0,0,0,0,0,0,0,0,5.235,5.225,5.248,5.2479,5.248,5.259,5.2592,5.2594,5.2561,5.2558,5.2554,5.2551,5.2665,5.2673,5.2681,5.2799,0,0,5.2705,5.2708,0,0,0,0,0,0,0,0,5.2344,5.2359,5.2478,5.2479,5.2481,5.2558,5.2551,5.2663,5.2562,5.253,5.2553,5.2549,5.2635,5.2645,5.2674,5.2804,5.2809,5.2705,5.271,5.2714,5.2716,0,0,0,0,0,0,0,5.2337,5.2354,5.2524,5.248,5.2482,5.2475,5.2486,5.2572,5.2601,5.2533,5.2531,5.2544,5.2635,5.2666,5.2676,5.2811,5.2705,5.2712,5.2717,5.272,5.3047,5.3051,0,0,0,0,0,0,5.2328,5.2348,5.252,5.2527,5.2402,5.2482,5.2494,5.2537,5.26,5.2606,5.2547,5.2542,5.2654,5.2667,5.268,5.2824,5.2714,5.2721,5.2725,5.3043,5.3048,5.3052,0,0,0,0,0,0,5.2323,5.2344,5.2516,5.2437,5.2458,5.249,5.2537,5.2541,5.2572,5.2611,5.2616,5.2573,5.2652,5.2669,5.277,5.2828,5.2724,5.2732,5.3038,5.3045,5.305,5.3113,0,0,0,0,0,0,5.2317,5.2342,5.2386,5.2438,5.2463,5.2603,5.2541,5.2545,5.2585,5.258,5.2636,5.2643,5.2651,5.2758,5.2778,5.2837,5.2738,5.3033,5.3041,5.3048,5.3106,5.312,5.3132,0,0,0,0,0,5.2308,5.2399,5.2388,5.2409,5.2518,5.2606,5.262,5.2627,5.259,5.2635,5.2661,5.2641,5.2818,5.2769,5.2791,5.2853,5.303,5.3039,5.3048,5.31,5.3117,5.3132,0,0,0,0,0,0,5.2353,5.2406,5.2395,5.2505,5.2551,5.26,5.2657,5.2645,5.2704,5.2696,5.2703,5.2717,5.2821,5.2847,5.2791,5.2972,5.2919,5.2932,5.2951,5.2968,5.2981,5.2973,5.2744,0,0,0,0,0,5.2376,5.2442,5.2485,5.2578,5.2602,5.2626,5.2664,5.2666,5.2714,5.2734,5.2767,5.2816,5.2883,5.2927,5.299,5.3109,5.3123,5.3163,5.3176,5.3187,5.3199,5.3267,5.3286,5.3082,5.3081,5.3081,0,0,5.2424,5.2461,5.2502,5.2588,5.2624,5.2694,5.2643,5.2718,5.277,5.2746,5.2843,5.2869,5.2925,5.3036,5.3086,5.3061,5.3259,5.3199,5.3207,5.3213,5.3278,5.3297,5.3315,5.3088,5.3086,5.3086,0,0,5.2546,5.258,5.2663,5.27,5.2756,5.2771,5.2791,5.2843,5.2859,5.2957,5.2941,5.3004,5.3119,5.316,5.3196,5.3337,5.3322,5.3358,5.3428,5.3494,5.351,5.3524,5.3577,5.3595,5.3369,5.3369,5.337,0,5.2599,5.2702,5.2707,5.2785,5.2824,5.2805,5.289,5.2927,5.3001,5.3029,5.2999,5.3145,5.318,5.3302,5.3337,5.3366,5.339,5.3351,5.3507,5.3521,5.3535,5.3585,5.3604,5.3374,5.3373,5.3373,5.3372,0,5.2765,5.2837,5.2898,5.2969,5.3016,5.3097,5.3116,5.3162,5.316,5.318,5.3282,5.3324,5.3397,5.3426,5.3425,5.3549,5.3532,5.3504,5.3451,5.3558,5.3606,5.3625,5.3379,5.3378,5.3377,5.3376,0,0,5.2918,5.2993,5.3015,5.3049,5.311,5.3166,5.3248,5.3319,5.336,5.3412,5.3482,5.358,5.3556,5.3597,5.36,5.3658,5.377,5.3624,5.3626,5.3651,5.3912,5.3933,5.3955,5.376,5.3764,5.3767,5.3908,0,5.3047,5.3189,5.3197,5.3327,5.3395,5.3379,5.345,5.3497,5.3518,5.358,5.3603,5.3674,5.3636,5.3661,5.3717,5.3745,5.3823,5.3734,5.3827,5.383,5.3815,5.3979,5.4001,5.4132,5.3926,5.3929,5.3932,0,5.3216,5.3274,5.3411,5.3464,5.3493,5.3557,5.3624,5.3683,5.3736,5.3748,5.3794,5.379,5.3876,5.382,5.3939,5.3878,5.3917,5.3937,5.3942,5.3952,5.3888,5.3995,5.4174,5.4194,5.3961,5.3958,5.3956,0,5.3317,5.3429,5.3525,5.3554,5.3619,5.3664,5.3693,5.3743,5.3786,5.3845,5.3874,5.3943,5.3981,5.4035,5.405,5.4008,5.417,5.4114,5.4184,5.4184,5.4219,5.4217,5.4408,5.4242,5.4242,5.4242,5.4241,0,5.3461,5.3545,5.3572,5.3631,5.3726,5.3736,5.383,5.3856,5.3901,5.3967,5.3958,5.402,5.4036,5.4102,5.4115,5.4213,5.423,5.4243,5.4246,5.4245,5.4243,5.4271,5.4262,5.4247,5.4246,5.4245,5.4244,0,5.3589,5.3609,5.3714,5.3767,5.3783,5.3851,5.3897,5.3955,5.3975,5.4059,5.4079,5.4112,5.4189,5.421,5.4303,5.4312,5.4428,5.4421,5.441,5.441,5.4479,5.4473,5.4695,5.4726,5.4539,5.4541,5.4542,0,5.368,5.3744,5.3805,5.3848,5.3879,5.3949,5.3993,5.4006,5.4053,5.412,5.4171,5.4247,5.4308,5.4433,5.4466,5.4538,5.4534,5.4607,5.4545,5.4542,5.4537,5.4533,5.4541,5.4619,5.4621,5.4623,5.4624,0,5.384,5.3847,5.3911,5.398,5.4033,5.4087,5.414,5.4176,5.4196,5.425,5.4329,5.4377,5.4472,5.4549,5.4621,5.4653,5.4643,5.4643,5.4664,5.4663,5.4655,5.4662,5.4443,5.4638,5.4637,5.4636,5.4635,5.4634,5.3953,5.4011,5.4063,5.4135,5.4176,5.4226,5.4284,5.4312,5.4378,5.4456,5.446,5.4546,5.46,5.4697,5.4733,5.4802,5.478,5.4809,5.4817,5.4824,5.483,5.4643,5.4815,5.4815,5.4814,5.4814,5.4814,0,5.4114,5.4147,5.4213,5.4287,5.4345,5.433,5.4388,5.4437,5.4513,5.4564,5.4625,5.4717,5.4792,5.4832,5.4907,5.4955,5.4952,5.4974,5.4971,5.4979,5.4845,5.482,5.4975,5.4975,5.4975,5.4975,5.4975,5.4975,5.4204,5.4302,5.4316,5.4435,5.4468,5.4552,5.4587,5.4634,5.4674,5.4778,5.484,5.4865,5.4912,5.4991,5.506,5.507,5.5098,5.5123,5.5131,5.5005,5.4988,5.4972,5.495,5.5129,5.5129,5.5259,5.5261,5.5262]},{"header":{"parameterUnit":"m.s-1","parameterCategory":1,"la1":30.2991,"la2":30.254,"lo1":-89.0895,"lo2":-89.0444,"dy":0.0017,"dx":0.0017,"nx":28,"ny":28,"refTime":"2023-10-19T21:00:00:Z","depth":0,"parameterNumber":3,"parameterNumberName":"V-component_of_WINDS"},"data":[0,0,0,0,0,0,0,0,0,0,0,0,0,0,0,0,0,0,0,0,0,0,0,0,0,0,0,0,0,0,0,0,0,0,0,0,0,0,0,0,0,0,0,0,0,0,0,0,0,0,0,0,0,0,0,0,0,0,0.9851,0.9852,0,0.9918,0.9919,0.992,0.9897,0.9895,0.9894,0.9893,0.9962,0.9965,0.9968,0,0,0,0,0,0,0,0,0,0,0,0,0,0.9702,0.9705,0.9851,0.9852,0.9853,0.9918,0.9919,0.992,0.9897,0.9895,0.9894,0.9892,0.9961,0.9965,0.9969,0,0,0,0,0,0,0,0,0,0,0,0,0,0.9768,0.9706,0.9851,0.9849,0.985,0.9918,0.9919,0.992,0.9897,0.9895,0.9893,0.9891,0.996,0.9964,0.9969,1.0043,0,0,0.9984,0.9986,0,0,0,0,0,0,0,0,0.9764,0.9773,0.9848,0.9849,0.985,0.9897,0.9892,0.9961,0.9898,0.9879,0.9892,0.989,0.9942,0.9948,0.9966,1.0047,1.005,0.9984,0.9987,0.9989,0.9991,0,0,0,0,0,0,0,0.976,0.977,0.9877,0.985,0.9851,0.9845,0.9852,0.9905,0.9922,0.9881,0.9879,0.9888,0.9942,0.9961,0.9967,1.0051,0.9984,0.9989,0.9991,0.9993,1.0194,1.0196,0,0,0,0,0,0,0.9755,0.9767,0.9875,0.9879,0.9801,0.9849,0.9857,0.9884,0.9922,0.9925,0.9889,0.9886,0.9954,0.9962,0.997,1.0058,0.9989,0.9994,0.9997,1.0192,1.0195,1.0197,0,0,0,0,0,0,0.9751,0.9764,0.9873,0.9823,0.9836,0.9854,0.9885,0.9887,0.9906,0.9928,0.9931,0.9906,0.9953,0.9963,1.0025,1.006,0.9996,1.0,1.0189,1.0193,1.0196,1.0237,0,0,0,0,0,0,0.9747,0.9764,0.9792,0.9823,0.9839,0.9927,0.9887,0.9889,0.9914,0.991,0.9944,0.9948,0.9952,1.0018,1.003,1.0066,1.0004,1.0186,1.0191,1.0195,1.0232,1.0241,1.0249,0,0,0,0,0,0.9742,0.9801,0.9794,0.9807,0.9875,0.9929,0.9938,0.9941,0.9917,0.9946,0.996,0.9947,1.0054,1.0024,1.0038,1.0076,1.0184,1.0189,1.0195,1.0229,1.024,1.0249,0,0,0,0,0,0,0.9774,0.9805,0.9797,0.9869,0.9896,0.9925,0.9962,0.9953,0.9988,0.9984,0.9986,0.9994,1.0057,1.0073,1.0038,1.0149,1.0115,1.0124,1.0137,1.0147,1.0156,1.0151,1.0008,0,0,0,0,0,0.979,0.9831,0.9856,0.9916,0.9931,0.9944,0.9968,0.9967,0.9996,1.0008,1.0027,1.0056,1.0096,1.0122,1.0161,1.0234,1.0241,1.0267,1.0275,1.0282,1.0289,1.0328,1.034,1.0215,1.0215,1.0215,0,0,0.9822,0.9844,0.987,0.9923,0.9945,0.9988,0.9954,1.0001,1.0032,1.0015,1.0075,1.009,1.0122,1.0189,1.022,1.0204,1.0325,1.0289,1.0294,1.0298,1.0335,1.0347,1.0357,1.0219,1.0218,1.0218,0,0,0.9902,0.9923,0.9976,0.9998,1.003,1.0038,1.0051,1.0081,1.009,1.015,1.0137,1.0175,1.0244,1.0267,1.0288,1.0375,1.0364,1.0388,1.0432,1.047,1.048,1.0488,1.0519,1.0531,1.0395,1.0395,1.0395,0,0.9939,1.0003,1.0004,1.0051,1.0075,1.006,1.0113,1.0134,1.0178,1.0194,1.0176,1.0261,1.0282,1.0355,1.0376,1.0393,1.0407,1.0384,1.0478,1.0487,1.0495,1.0525,1.0536,1.0398,1.0397,1.0397,1.0397,0,1.0045,1.0089,1.0128,1.017,1.0197,1.0247,1.0256,1.0283,1.028,1.029,1.0351,1.0375,1.0417,1.0434,1.0432,1.0506,1.0495,1.0477,1.0444,1.051,1.0537,1.0549,1.0401,1.04,1.04,1.0399,0,0,1.0149,1.019,1.0204,1.0222,1.0257,1.0291,1.034,1.0381,1.0405,1.0435,1.0475,1.0534,1.0517,1.054,1.054,1.0574,1.0641,1.0552,1.0553,1.0568,1.0724,1.0737,1.075,1.0633,1.0636,1.0637,1.0721,0,1.0232,1.0318,1.032,1.0399,1.0439,1.0425,1.0468,1.0493,1.0503,1.0539,1.055,1.0591,1.0566,1.058,1.0613,1.0626,1.0672,1.062,1.0671,1.0673,1.0664,1.0765,1.078,1.0858,1.0732,1.0734,1.0735,0,1.0341,1.0374,1.0457,1.0484,1.0502,1.054,1.0577,1.0611,1.0639,1.0644,1.067,1.0665,1.0714,1.0678,1.0746,1.071,1.0731,1.074,1.0743,1.0749,1.0709,1.0773,1.0882,1.0894,1.0752,1.0751,1.075,0,1.0409,1.0474,1.0532,1.0548,1.0581,1.0608,1.0623,1.0649,1.0674,1.0706,1.0721,1.0759,1.078,1.0809,1.0814,1.0787,1.0881,1.0846,1.0887,1.0887,1.0908,1.0906,1.1022,1.0921,1.092,1.092,1.092,0,1.0502,1.0553,1.0562,1.0598,1.0654,1.0655,1.0711,1.0724,1.0747,1.0784,1.0774,1.081,1.0813,1.085,1.0853,1.0909,1.0918,1.0923,1.0924,1.0924,1.0924,1.0939,1.0933,1.0923,1.0923,1.0922,1.0922,0,1.0587,1.0595,1.0657,1.0683,1.0691,1.0732,1.0754,1.0788,1.0796,1.0843,1.0855,1.0868,1.091,1.0917,1.0967,1.0969,1.1035,1.103,1.1026,1.1025,1.1065,1.1062,1.1195,1.1212,1.1099,1.11,1.1101,0,1.0646,1.0685,1.0715,1.0739,1.0756,1.0795,1.082,1.0822,1.0847,1.0882,1.0911,1.0952,1.0985,1.1052,1.1066,1.1104,1.11,1.1144,1.1105,1.1104,1.11,1.1098,1.1102,1.1151,1.1153,1.1154,1.1154,0,1.075,1.0752,1.0788,1.0824,1.0854,1.0883,1.091,1.0931,1.0936,1.0966,1.1008,1.1034,1.1084,1.1124,1.1161,1.1176,1.1167,1.1166,1.1178,1.1179,1.1175,1.1178,1.1046,1.1163,1.1163,1.1162,1.1161,1.1161,1.0824,1.0858,1.0884,1.0924,1.0944,1.097,1.1003,1.1015,1.1051,1.1091,1.109,1.1137,1.1163,1.1211,1.1229,1.1265,1.1251,1.1267,1.1272,1.1276,1.128,1.1169,1.1272,1.1272,1.1271,1.1271,1.1271,0,1.0928,1.0943,1.098,1.1018,1.1049,1.1037,1.1066,1.1093,1.1134,1.1159,1.1191,1.124,1.1279,1.1295,1.1333,1.1359,1.1355,1.1369,1.1367,1.1371,1.129,1.1277,1.1371,1.1371,1.1371,1.1371,1.1371,1.1371,1.0985,1.1041,1.1046,1.1112,1.1127,1.1173,1.119,1.1214,1.1233,1.1288,1.132,1.1331,1.1352,1.1391,1.1426,1.143,1.1444,1.146,1.1462,1.1387,1.1376,1.1367,1.1354,1.1463,1.1463,1.1539,1.154,1.1541]}]]